Flag for Canada Weather past 2 weeks in Cape Dorset, Nunavut Territory, Canada

Now
25 °F

Overcast.


Feels Like: 13 °F
Forecast: 15 / 24 °F
Wind: 13 mph from Northeast

Location: Cape Dorset

Current Time: Oct 23, 2014 at 12:56:58 AM

Latest Report: Oct 23, 2014 at 12:00 AM


Visibility: 9 mi

Pressure: 29.88 "Hg

Humidity: 86%

Dew point: 21 °F

Location of Cape DorsetLocation

Historic Weather in Cape Dorset — Graph

°F

Cape Dorset temperature yesterday

Maximum temperature yesterday: 34 °F (at 12:49 AM)
Minimum temperature yesterday: 27 °F (at 8:54 PM)
Average temperature yesterday: 31 °F

Past Weeks' High & Low Weather Summary

 TemperatureHumidityPressure
High34 °F (Oct 7, 11:00 PM)100% (Oct 8, 3:00 AM)30.15 "Hg (Oct 8, 3:00 AM)
Low21 °F (Oct 19, 1:00 AM)69% (Oct 9, 11:00 PM)29.10 "Hg (Oct 10, 11:58 PM)
Average28 °F90%29.74 "Hg
* Reported Oct 7 11:00 PM — Oct 22 11:00 PM, Cape Dorset, Weather by CustomWeather, © 2014

Note: Actual official high and low records may vary slightly from our data, if they occured in-between our weather recording intervals... More about our weather records

Advertising

Cape Dorset weather history for previous 24 hours

 ConditionsComfort  
Time TempWeatherWind HumidityBarometerVisibility
11:00 PM
Oct 22
27 °FOvercast.15 mph80%29.86 "Hg9 mi
10:00 PM27 °FOvercast.15 mph86%29.84 "Hg9 mi
9:04 PM27 °FLight snow. Overcast.14 mph93%29.81 "Hg6 mi
8:54 PM27 °FLight snow. Overcast.13 mph93%29.80 "Hg5 mi
8:00 PM28 °FOvercast.15 mph86%29.79 "Hg9 mi
7:00 PM28 °FOvercast.8 mph93%29.76 "Hg9 mi
6:51 PM28 °FOvercast.6 mph86%29.75 "Hg9 mi
6:02 PM30 °FLight snow. Passing clouds.No wind86%29.73 "Hg9 mi
5:51 PM28 °FLight snow. Passing clouds.9 mph93%29.72 "Hg9 mi
5:00 PM30 °FPassing clouds.8 mph86%29.70 "Hg15 mi
4:00 PM30 °FScattered clouds.13 mph86%29.67 "Hg15 mi
3:00 PM30 °FBroken clouds.14 mph100%29.64 "Hg15 mi
2:00 PM32 °FPartly sunny.16 mphN/A29.61 "Hg15 mi
1:00 PM32 °FScattered clouds.16 mph93%29.58 "Hg15 mi
12:54 PM32 °FPartly sunny.15 mph93%29.58 "Hg15 mi
12:00 PM32 °FLow clouds.17 mph93%29.56 "Hg15 mi
11:00 AM32 °FDrizzle. Ice fog.18 mphN/A29.53 "Hg2 mi
10:00 AM32 °FIce fog.23 mphN/A29.51 "Hg4 mi
9:00 AM32 °FIce fog.25 mphN/A29.48 "Hg2 mi
8:55 AM32 °FIce fog.26 mphN/A29.48 "Hg2 mi
8:00 AM32 °FDrizzle. Fog.29 mphN/A29.45 "Hg1 mi
7:00 AM34 °FLight rain. Low clouds.35 mphN/A29.43 "Hg2 mi
6:59 AM34 °FLight rain. Low clouds.32 mphN/A29.44 "Hg2 mi
6:03 AM34 °FLight rain. Low clouds.26 mphN/A29.44 "Hg2 mi
6:00 AM34 °FLight rain. Low clouds.29 mphN/A29.44 "Hg2 mi
5:52 AM34 °FLight rain. Low clouds.28 mphN/A29.44 "Hg2 mi
5:01 AM32 °FLow clouds.21 mphN/A29.45 "Hg2 mi
5:00 AM32 °FLow clouds.23 mphN/A29.44 "Hg2 mi
4:00 AM34 °FLight rain. Low clouds.24 mphN/A29.46 "Hg3 mi
1:03 AM34 °FLight rain. Overcast.21 mph93%29.58 "Hg8 mi
12:49 AM34 °FLight rain. Low clouds.17 mph100%29.61 "Hg8 mi
12:01 AM32 °FLight snow. Mostly cloudy.18 mphN/A29.64 "Hg3 mi
Weather by CustomWeather, © 2014

See weather overviewHow to use our weather pages